The Dalles, WA

7:00 PM PST on November 16, 2019 (GMT -0800)
Columbia Gorge Regional-The Dalles

Weather History for KDLS - September, 2019

Change the Weather History Date:

Tuesday, September 3, 2019

  Actual Average Record
Temperature  
Mean Temperature 76 °F -  
Max Temperature 90 °F 86 °F 105 °F (1988)
Min Temperature 64 °F 54 °F 42 °F (1980)
Cooling Degree Days 12    
Growing Degree Days 26 (Base 50)    
Moisture  
Dew Point 54 °F    
Average Humidity 51    
Maximum Humidity 73    
Minimum Humidity 29    
Precipitation  
Precipitation 0.00 in - - ()
Sea Level Pressure  
Sea Level Pressure 29.93 in    
Wind  
Wind Speed 9 mph (WNW)    
Max Wind Speed 24 mph    
Max Gust Speed 34 mph    
Visibility 10 miles    
Events      
Averages and records for this station are not official NWS values.
T = Trace of Precipitation, MM = Missing Value Source: NWS Daily Summary

Daily Weather History Graph

Daily Weather History Graph

Search for Another Location

Airport or City:

Astronomy

Sep. 03, 2019 Rise Set
Actual Time 6:28 AM PDT 7:38 PM PDT
Civil Twilight 5:57 AM PDT 8:09 PM PDT
Nautical Twilight 5:20 AM PDT 8:45 PM PDT
Astronomical Twilight 4:42 AM PDT 9:24 PM PDT
Moon 11:41 AM PDT (9/3) 10:23 PM PDT (9/3)
Length of Visible Light 14h 11m
Length of Day
13h 10m
Waxing Crescent, 25% of the Moon is Illuminated
Sep 3
Waxing Crescent
Sep 5
First Quarter
Sep 13
Full
Sep 21
Last Quarter
Sep 28
New

Hourly Weather History & Observations

Time (PDT) Temp. Heat Index Dew Point Humidity Pressure Visibility Wind Dir Wind Speed Gust Speed Precip Events Conditions
12:53 AM 69.1 °F - 55.0 °F 61% 29.96 in 10.0 mi SW 5.8 mph - N/A   Clear
1:53 AM 69.1 °F - 55.0 °F 61% 29.96 in 10.0 mi WNW 6.9 mph - N/A   Clear
2:53 AM 66.0 °F - 55.9 °F 70% 29.96 in 10.0 mi Calm Calm - N/A   Clear
3:53 AM 66.9 °F - 55.0 °F 66% 29.97 in 10.0 mi West 8.1 mph - N/A   Clear
4:53 AM 66.0 °F - 55.0 °F 68% 29.96 in 10.0 mi Variable 5.8 mph - N/A   Clear
5:53 AM 64.9 °F - 55.0 °F 70% 29.96 in 10.0 mi NW 9.2 mph - N/A   Clear
6:53 AM 64.0 °F - 55.0 °F 73% 29.98 in 10.0 mi West 3.5 mph - N/A   Clear
7:53 AM 66.0 °F - 55.9 °F 70% 29.99 in 10.0 mi NW 3.5 mph - N/A   Clear
8:53 AM 66.9 °F - 55.9 °F 68% 29.98 in 10.0 mi NNW 11.5 mph - N/A   Clear
9:53 AM 70.0 °F - 55.9 °F 61% 29.97 in 10.0 mi NW 10.4 mph - N/A   Clear
10:53 AM 72.0 °F - 55.9 °F 57% 29.96 in 10.0 mi NW 15.0 mph - N/A   Clear
11:53 AM 79.0 °F - 55.0 °F 44% 29.94 in 10.0 mi NW 12.7 mph - N/A   Clear
12:53 PM 82.0 °F 81.2 °F 53.1 °F 37% 29.92 in 10.0 mi NW 10.4 mph - N/A   Clear
1:53 PM 88.0 °F - 52.0 °F 29% 29.90 in 10.0 mi WNW 8.1 mph - N/A   Clear
2:53 PM 89.1 °F 86.9 °F 54.0 °F 30% 29.88 in 10.0 mi NW 16.1 mph - N/A   Clear
3:53 PM 89.1 °F 86.7 °F 53.1 °F 29% 29.86 in 10.0 mi WNW 20.7 mph 25.3 mph N/A   Clear
4:53 PM 86.0 °F 84.2 °F 54.0 °F 33% 29.87 in 10.0 mi NW 13.8 mph 27.6 mph N/A   Clear
5:53 PM 84.0 °F 82.5 °F 53.1 °F 34% 29.87 in 10.0 mi WNW 24.2 mph 33.4 mph N/A   Clear
6:53 PM 81.0 °F - 51.1 °F 35% 29.89 in 10.0 mi WNW 19.6 mph 34.5 mph N/A   Clear
7:53 PM 79.0 °F - 51.1 °F 38% 29.90 in 10.0 mi WNW 12.7 mph 21.9 mph N/A   Clear
8:53 PM 77.0 °F - 54.0 °F 45% 29.91 in 10.0 mi West 13.8 mph - N/A   Clear
9:53 PM 75.0 °F - 54.0 °F 48% 29.92 in 10.0 mi West 10.4 mph - N/A   Clear
10:53 PM 73.0 °F - 55.0 °F 53% 29.93 in 10.0 mi West 10.4 mph - N/A   Clear
11:53 PM 73.0 °F - 55.0 °F 53% 29.95 in 10.0 mi West 15.0 mph - N/A   Clear